Location: Shepherdstown, WV
(39.4326°N, 77.8042°W)
Time: 05:45:53
(UTC-04:00)

Vanguard 1 - Pass Details

Date: 10 August 2021
Orbit: 652 x 3831 km, 34.3° (Epoch: 24 September)

Event Time Altitude Azimuth Distance (km) Brightness Sun altitude
Rises 14:19:56 0° 266° (W) 3,209 13.0 62.2°
Reaches altitude 10° 14:22:27 10° 251° (WSW) 2,482 12.7 61.9°
Maximum altitude 14:27:00 24° 199° (SSW) 2,102 12.7 61.4°
Drops below altitude 10° 14:33:33 10° 150° (SSE) 3,708 13.3 60.6°
Sets 14:38:24 0° 139° (SE) 5,282 13.9 60.0°
